EW1392 Weather Reports


Display with metric or nautical units.
time (UTC)temp
F
wind
direction
speed
MPH
gust
MPH
rain 1hr
in
rain 24hr
in
rain mn
in
humidity
%
barometer
mb
20260505001555 81 170 0.0 5.0 0.00 0.00 0.00 29 1004.4
20260505000057 82 207 1.0 4.0 0.00 0.00 0.00 28 1004.3
20260504234553 83 187 0.0 6.0 0.00 0.00 0.00 27 1004.3
20260504233052 83 211 0.0 3.0 0.00 0.00 0.00 26 1004.2
20260504231553 84 163 0.0 6.0 0.00 0.00 0.00 24 1004.3
20260504230051 85 182 0.0 7.0 0.00 0.00 0.00 24 1004.5
20260504224549 84 96 0.0 7.0 0.00 0.00 0.00 25 1004.5
20260504223048 84 182 1.0 5.0 0.00 0.00 0.00 24 1004.5
20260504221547 84 137 0.0 4.0 0.00 0.00 0.00 24 1004.6
20260504220046 84 205 0.0 4.0 0.00 0.00 0.00 26 1004.7
20260504214553 84 67 0.0 4.0 0.00 0.00 0.00 25 1004.7
20260504213043 84 167 0.0 4.0 0.00 0.00 0.00 24 1004.9
20260504211543 84 243 0.0 5.0 0.00 0.00 0.00 26 1004.9
20260504210054 84 186 0.0 6.0 0.00 0.00 0.00 24 1005.1
20260504204556 84 175 0.0 2.0 0.00 0.00 0.00 24 1005.2
20260504203041 84 186 0.0 5.0 0.00 0.00 0.00 24 1005.3
20260504201535 83 306 0.0 3.0 0.00 0.00 0.00 28 1005.5
20260504200032 82 44 2.0 4.0 0.00 0.00 0.00 26 1005.8
20260504194528 81 14 0.0 2.0 0.00 0.00 0.00 29 1006.0
20260504193025 81 123 0.0 3.0 0.00 0.00 0.00 30 1006.1
20260504191521 79 222 0.0 2.0 0.00 0.00 0.00 30 1006.3
20260504190018 79 96 0.0 1.0 0.00 0.00 0.00 30 1006.5
20260504184517 78 96 0.0 2.0 0.00 0.00 0.00 30 1006.8
20260504183011 76 201 0.0 3.0 0.00 0.00 0.00 36 1006.9
20260504181508 74 258 0.0 1.0 0.00 0.00 0.00 38 1007.0
20260504180006 73 257 0.0 0.0 0.00 0.00 0.00 36 1007.4
20260504174501 72 280 0.0 0.0 0.00 0.00 0.00 44 1007.6
20260504173108 70 280 0.0 1.0 0.00 0.00 0.00 49 1007.6
20260504171602 69 216 0.0 2.0 0.00 0.00 0.00 46 1007.8
20260504081549 47 294 0.0 0.0 0.00 0.00 0.00 87 1008.9
20260504044535 58 294 0.0 0.0 0.00 0.00 0.00 73 1008.2
20260504043034 59 294 0.0 0.0 0.00 0.00 0.00 71 1008.1
20260504041541 61 294 0.0 0.0 0.00 0.00 0.00 69 1008.1
20260504040039 62 294 0.0 0.0 0.00 0.00 0.00 66 1007.9
20260504034541 63 294 0.0 0.0 0.00 0.00 0.00 63 1007.8
20260504033032 65 294 0.0 0.0 0.00 0.00 0.00 60 1007.4
20260504031533 68 294 0.0 0.0 0.00 0.00 0.00 56 1007.2
20260504030035 70 294 0.0 0.0 0.00 0.00 0.00 52 1007.1
20260504024531 72 294 0.0 0.0 0.00 0.00 0.00 48 1007.0
20260504023030 74 324 0.0 3.0 0.00 0.00 0.00 42 1006.9
20260504021530 75 160 0.0 2.0 0.00 0.00 0.00 39 1006.9
20260504020036 77 200 0.0 1.0 0.00 0.00 0.00 35 1006.9
20260504014531 77 203 0.0 3.0 0.00 0.00 0.00 33 1006.9
20260504013032 79 221 0.0 1.0 0.00 0.00 0.00 33 1007.0
20260504011526 80 205 0.0 5.0 0.00 0.00 0.00 29 1007.0
20260504010025 81 213 0.0 3.0 0.00 0.00 0.00 29 1007.0
20260504004525 82 225 0.0 4.0 0.00 0.00 0.00 26 1007.0
20260504003023 82 200 1.0 4.0 0.00 0.00 0.00 24 1007.1